| time (UTC) | temp C | wind direction | speed KPH | gust KPH | rain 1hr cm | rain 24hr cm | rain mn cm | humidity % | barometer mb |
| 20260506025516 | 21 | 10 | 1.6 | 8.0 | 0.00 | 0.00 | 0.00 | 71 | 1008.1 |
| 20260506024516 | 21 | 322 | 1.6 | 6.4 | 0.00 | 0.00 | 0.00 | 71 | 1007.9 |
| 20260506023516 | 21 | 313 | 1.6 | 8.0 | 0.00 | 0.00 | 0.00 | 70 | 1007.6 |
| 20260506022516 | 21 | 314 | 1.6 | 6.4 | 0.00 | 0.00 | 0.00 | 70 | 1007.2 |
| 20260506021517 | 21 | 304 | 1.6 | 9.7 | 0.00 | 0.00 | 0.00 | 69 | 1007.0 |
| 20260506020557 | 22 | 312 | 4.8 | 11.3 | 0.00 | 0.00 | 0.00 | 69 | 1006.7 |
| 20260506015517 | 22 | 323 | 1.6 | 4.8 | 0.00 | 0.00 | 0.00 | 69 | 1006.3 |
| 20260506014517 | 22 | 313 | 1.6 | 6.4 | 0.00 | 0.00 | 0.00 | 68 | 1006.4 |
| 20260506013517 | 22 | 313 | 1.6 | 8.0 | 0.00 | 0.00 | 0.00 | 68 | 1006.3 |
| 20260506012517 | 22 | 314 | 3.2 | 9.7 | 0.00 | 0.00 | 0.00 | 67 | 1006.0 |
| 20260506011518 | 23 | 317 | 1.6 | 6.4 | 0.00 | 0.00 | 0.00 | 66 | 1006.1 |
| 20260506010521 | 23 | 325 | 1.6 | 6.4 | 0.00 | 0.00 | 0.00 | 66 | 1006.2 |
| 20260506005518 | 23 | 347 | 1.6 | 4.8 | 0.00 | 0.00 | 0.00 | 65 | 1006.0 |
| 20260506004518 | 24 | 345 | 1.6 | 3.2 | 0.00 | 0.00 | 0.00 | 64 | 1005.5 |
| 20260506003538 | 25 | 356 | 1.6 | 3.2 | 0.00 | 0.00 | 0.00 | 63 | 1005.4 |
| 20260506002516 | 25 | 336 | 1.6 | 8.0 | 0.00 | 0.00 | 0.00 | 62 | 1005.2 |
| 20260506001516 | 26 | 331 | 1.6 | 8.0 | 0.00 | 0.00 | 0.00 | 62 | 1005.0 |
| 20260506000516 | 27 | 328 | 3.2 | 11.3 | 0.00 | 0.00 | 0.00 | 60 | 1004.9 |
| 20260505235516 | 27 | 315 | 1.6 | 12.9 | 0.00 | 0.00 | 0.00 | 60 | 1004.6 |
| 20260505234516 | 28 | 357 | 1.6 | 6.4 | 0.00 | 0.00 | 0.00 | 58 | 1004.5 |
| 20260505233517 | 28 | 312 | 3.2 | 14.5 | 0.00 | 0.00 | 0.00 | 57 | 1004.4 |
| 20260505232517 | 29 | 314 | 3.2 | 11.3 | 0.00 | 0.00 | 0.00 | 54 | 1004.5 |
| 20260505231517 | 30 | 311 | 6.4 | 14.5 | 0.00 | 0.00 | 0.00 | 53 | 1004.2 |
| 20260505230537 | 30 | 310 | 4.8 | 14.5 | 0.00 | 0.00 | 0.00 | 50 | 1004.1 |
| 20260505225518 | 30 | 310 | 4.8 | 14.5 | 0.00 | 0.00 | 0.00 | 48 | 1003.8 |
| 20260505224517 | 30 | 307 | 4.8 | 14.5 | 0.00 | 0.00 | 0.00 | 47 | 1003.7 |
| 20260505223518 | 31 | 313 | 3.2 | 16.1 | 0.00 | 0.00 | 0.00 | 47 | 1003.8 |
| 20260505222538 | 32 | 307 | 3.2 | 14.5 | 0.00 | 0.00 | 0.00 | 46 | 1003.4 |
| 20260505221518 | 33 | 311 | 4.8 | 12.9 | 0.00 | 0.00 | 0.00 | 47 | 1003.1 |
| 20260505220518 | 33 | 319 | 1.6 | 8.0 | 0.00 | 0.00 | 0.00 | 46 | 1003.1 |
| 20260505215518 | 33 | 321 | 3.2 | 9.7 | 0.00 | 0.00 | 0.00 | 46 | 1003.3 |
| 20260505214518 | 33 | 341 | 1.6 | 6.4 | 0.00 | 0.00 | 0.00 | 46 | 1003.3 |
| 20260505213515 | 33 | 344 | 1.6 | 4.8 | 0.00 | 0.00 | 0.00 | 46 | 1003.3 |
| 20260505212516 | 33 | 345 | 1.6 | 6.4 | 0.00 | 0.00 | 0.00 | 48 | 1003.5 |
| 20260505211516 | 33 | 352 | 1.6 | 9.7 | 0.00 | 0.00 | 0.00 | 47 | 1003.6 |
| 20260505210516 | 33 | 346 | 1.6 | 4.8 | 0.00 | 0.00 | 0.00 | 48 | 1003.7 |
| 20260505205518 | 33 | 98 | 1.6 | 11.3 | 0.00 | 0.00 | 0.00 | 49 | 1003.7 |
| 20260505204516 | 33 | 113 | 1.6 | 8.0 | 0.00 | 0.00 | 0.00 | 51 | 1003.9 |
| 20260505203516 | 33 | 323 | 3.2 | 8.0 | 0.00 | 0.00 | 0.00 | 50 | 1004.0 |
| 20260505202516 | 33 | 330 | 1.6 | 6.4 | 0.00 | 0.00 | 0.00 | 52 | 1004.3 |
| 20260505201516 | 32 | 317 | 3.2 | 11.3 | 0.00 | 0.00 | 0.00 | 52 | 1004.2 |
| 20260505200517 | 33 | 99 | 1.6 | 14.5 | 0.00 | 0.00 | 0.00 | 52 | 1004.3 |
| 20260505195517 | 32 | 81 | 1.6 | 4.8 | 0.00 | 0.00 | 0.00 | 54 | 1004.4 |
| 20260505194517 | 32 | 107 | 3.2 | 8.0 | 0.00 | 0.00 | 0.00 | 53 | 1004.5 |
| 20260505193517 | 32 | 114 | 3.2 | 14.5 | 0.00 | 0.00 | 0.00 | 55 | 1004.5 |
| 20260505192517 | 32 | 91 | 3.2 | 6.4 | 0.00 | 0.00 | 0.00 | 54 | 1004.5 |
| 20260505191517 | 32 | 116 | 3.2 | 9.7 | 0.00 | 0.00 | 0.00 | 55 | 1004.5 |
| 20260505190518 | 31 | 8 | 1.6 | 6.4 | 0.00 | 0.00 | 0.00 | 57 | 1004.5 |
| 20260505185518 | 30 | 50 | 1.6 | 9.7 | 0.00 | 0.00 | 0.00 | 59 | 1004.6 |
| 20260505184518 | 30 | 122 | 3.2 | 11.3 | 0.00 | 0.00 | 0.00 | 60 | 1004.7 |
| 20260505183518 | 30 | 339 | 1.6 | 8.0 | 0.00 | 0.00 | 0.00 | 59 | 1004.8 |
| 20260505182515 | 30 | 62 | 1.6 | 4.8 | 0.00 | 0.00 | 0.00 | 60 | 1004.8 |
| 20260505181516 | 30 | 348 | 1.6 | 8.0 | 0.00 | 0.00 | 0.00 | 60 | 1004.9 |
| 20260505180516 | 30 | 113 | 3.2 | 8.0 | 0.00 | 0.00 | 0.00 | 60 | 1004.8 |
| 20260505175516 | 30 | 100 | 3.2 | 9.7 | 0.00 | 0.00 | 0.00 | 60 | 1004.8 |
| 20260505174516 | 30 | 50 | 1.6 | 6.4 | 0.00 | 0.00 | 0.00 | 60 | 1004.7 |
| 20260505173517 | 30 | 114 | 3.2 | 11.3 | 0.00 | 0.00 | 0.00 | 61 | 1004.8 |
| 20260505172516 | 30 | 21 | 3.2 | 9.7 | 0.00 | 0.00 | 0.00 | 62 | 1004.9 |
| 20260505171517 | 29 | 65 | 1.6 | 9.7 | 0.00 | 0.00 | 0.00 | 64 | 1004.9 |
| 20260505170517 | 28 | 93 | 1.6 | 6.4 | 0.00 | 0.00 | 0.00 | 65 | 1004.9 |
| 20260505165517 | 28 | 115 | 3.2 | 11.3 | 0.00 | 0.00 | 0.00 | 65 | 1004.9 |
| 20260505164517 | 28 | 44 | 1.6 | 4.8 | 0.00 | 0.00 | 0.00 | 65 | 1005.0 |
| 20260505163517 | 28 | 126 | 3.2 | 12.9 | 0.00 | 0.00 | 0.00 | 67 | 1004.9 |
| 20260505162518 | 28 | 125 | 3.2 | 9.7 | 0.00 | 0.00 | 0.00 | 65 | 1004.9 |
| 20260505161537 | 27 | 141 | 6.4 | 12.9 | 0.00 | 0.00 | 0.00 | 68 | 1004.9 |
| 20260505160518 | 27 | 70 | 1.6 | 8.0 | 0.00 | 0.00 | 0.00 | 69 | 1004.8 |
| 20260505152519 | 26 | 78 | 3.2 | 6.4 | 0.00 | 0.00 | 0.00 | 73 | 1004.6 |
| 20260505151516 | 25 | 110 | 3.2 | 9.7 | 0.00 | 0.00 | 0.00 | 75 | 1004.8 |
| 20260505150519 | 25 | 136 | 1.6 | 8.0 | 0.00 | 0.00 | 0.00 | 77 | 1004.8 |
| 20260505140517 | 23 | 116 | 3.2 | 9.7 | 0.00 | 0.00 | 0.00 | 82 | 1004.4 |
| 20260505124601 | 21 | 140 | 3.2 | 8.0 | 0.00 | 0.00 | 0.00 | 86 | 1004.3 |
| 20260505123521 | 21 | 129 | 1.6 | 6.4 | 0.00 | 0.00 | 0.00 | 86 | 1004.3 |
| 20260505122541 | 21 | 131 | 3.2 | 6.4 | 0.00 | 0.00 | 0.00 | 86 | 1004.1 |
| 20260505121538 | 21 | 136 | 1.6 | 8.0 | 0.00 | 0.00 | 0.00 | 87 | 1003.8 |
| 20260505120601 | 21 | 129 | 1.6 | 6.4 | 0.00 | 0.00 | 0.00 | 87 | 1003.9 |
| 20260505115541 | 21 | 137 | 1.6 | 8.0 | 0.00 | 0.00 | 0.00 | 86 | 1003.9 |
| 20260505114519 | 21 | 148 | 1.6 | 8.0 | 0.00 | 0.00 | 0.00 | 86 | 1003.8 |
| 20260505113519 | 21 | 130 | 3.2 | 9.7 | 0.00 | 0.00 | 0.00 | 86 | 1003.7 |
| 20260505112522 | 21 | 137 | 3.2 | 8.0 | 0.00 | 0.00 | 0.00 | 85 | 1003.7 |
| 20260505111519 | 21 | 150 | 3.2 | 11.3 | 0.00 | 0.00 | 0.00 | 85 | 1003.6 |
| 20260505110542 | 22 | 125 | 3.2 | 4.8 | 0.00 | 0.00 | 0.00 | 85 | 1003.6 |
| 20260505101523 | 21 | 136 | 3.2 | 8.0 | 0.00 | 0.00 | 0.00 | 85 | 1003.6 |
| 20260505100523 | 21 | 121 | 3.2 | 6.4 | 0.00 | 0.00 | 0.00 | 85 | 1003.6 |
| 20260505095520 | 22 | 139 | 4.8 | 9.7 | 0.00 | 0.00 | 0.00 | 84 | 1003.6 |
| 20260505094523 | 22 | 147 | 4.8 | 8.0 | 0.00 | 0.00 | 0.00 | 84 | 1003.7 |
| 20260505093521 | 22 | 142 | 3.2 | 9.7 | 0.00 | 0.00 | 0.00 | 84 | 1003.6 |
| 20260505092520 | 22 | 136 | 3.2 | 8.0 | 0.00 | 0.00 | 0.00 | 83 | 1003.8 |
| 20260505091520 | 22 | 131 | 4.8 | 9.7 | 0.00 | 0.00 | 0.00 | 83 | 1003.9 |
| 20260505090524 | 22 | 123 | 3.2 | 8.0 | 0.00 | 0.00 | 0.00 | 83 | 1004.0 |
| 20260505085524 | 22 | 129 | 3.2 | 8.0 | 0.00 | 0.00 | 0.00 | 83 | 1004.0 |
| 20260505084521 | 22 | 129 | 3.2 | 9.7 | 0.00 | 0.00 | 0.00 | 83 | 1004.1 |
| 20260505083521 | 22 | 127 | 3.2 | 9.7 | 0.00 | 0.00 | 0.00 | 82 | 1004.1 |
| 20260505082521 | 22 | 116 | 3.2 | 11.3 | 0.00 | 0.00 | 0.00 | 82 | 1004.0 |
| 20260505081542 | 22 | 135 | 3.2 | 8.0 | 0.00 | 0.00 | 0.00 | 81 | 1004.0 |
| 20260505080515 | 22 | 121 | 4.8 | 9.7 | 0.00 | 0.00 | 0.00 | 81 | 1004.1 |
| 20260505075536 | 22 | 141 | 4.8 | 12.9 | 0.00 | 0.00 | 0.00 | 80 | 1004.2 |
| 20260505074516 | 22 | 133 | 4.8 | 9.7 | 0.00 | 0.00 | 0.00 | 80 | 1004.4 |
| 20260505073536 | 22 | 132 | 3.2 | 11.3 | 0.00 | 0.00 | 0.00 | 79 | 1004.6 |
| 20260505072516 | 22 | 138 | 4.8 | 11.3 | 0.00 | 0.00 | 0.00 | 78 | 1004.7 |
| 20260505071525 | 22 | 136 | 1.6 | 4.8 | 0.00 | 0.00 | 0.00 | 78 | 1004.9 |
| 20260505070516 | 23 | 145 | 3.2 | 11.3 | 0.00 | 0.00 | 0.00 | 77 | 1005.1 |
| 20260505065517 | 23 | 129 | 3.2 | 11.3 | 0.00 | 0.00 | 0.00 | 76 | 1005.2 |
| 20260505064519 | 23 | 125 | 3.2 | 9.7 | 0.00 | 0.00 | 0.00 | 75 | 1005.3 |
| 20260505063517 | 23 | 138 | 3.2 | 9.7 | 0.00 | 0.00 | 0.00 | 74 | 1005.4 |
| 20260505062537 | 23 | 129 | 3.2 | 8.0 | 0.00 | 0.00 | 0.00 | 74 | 1005.4 |
| 20260505061527 | 23 | 121 | 3.2 | 6.4 | 0.00 | 0.00 | 0.00 | 73 | 1005.5 |
| 20260505060517 | 23 | 139 | 4.8 | 12.9 | 0.00 | 0.00 | 0.00 | 72 | 1005.4 |
| 20260505055518 | 23 | 131 | 4.8 | 8.0 | 0.00 | 0.00 | 0.00 | 71 | 1005.3 |
| 20260505054518 | 23 | 127 | 4.8 | 11.3 | 0.00 | 0.00 | 0.00 | 71 | 1005.2 |
| 20260505053518 | 23 | 131 | 4.8 | 12.9 | 0.00 | 0.00 | 0.00 | 70 | 1005.3 |
| 20260505052518 | 24 | 137 | 4.8 | 12.9 | 0.00 | 0.00 | 0.00 | 70 | 1005.3 |
| 20260505051516 | 24 | 134 | 4.8 | 9.7 | 0.00 | 0.00 | 0.00 | 70 | 1005.4 |
| 20260505050518 | 24 | 127 | 3.2 | 12.9 | 0.00 | 0.00 | 0.00 | 70 | 1005.6 |
| 20260505041517 | 24 | 145 | 6.4 | 12.9 | 0.00 | 0.00 | 0.00 | 70 | 1005.7 |
| 20260505040517 | 24 | 147 | 4.8 | 11.3 | 0.00 | 0.00 | 0.00 | 70 | 1005.8 |
| 20260505035537 | 24 | 138 | 4.8 | 9.7 | 0.00 | 0.00 | 0.00 | 69 | 1005.8 |
| 20260505034517 | 24 | 140 | 4.8 | 14.5 | 0.00 | 0.00 | 0.00 | 70 | 1005.7 |
| 20260505033517 | 24 | 145 | 4.8 | 14.5 | 0.00 | 0.00 | 0.00 | 70 | 1005.7 |
| 20260505032517 | 24 | 148 | 4.8 | 14.5 | 0.00 | 0.00 | 0.00 | 69 | 1005.6 |
| 20260505031518 | 24 | 145 | 4.8 | 11.3 | 0.00 | 0.00 | 0.00 | 69 | 1005.8 |
| 20260505030518 | 24 | 136 | 3.2 | 11.3 | 0.00 | 0.00 | 0.00 | 68 | 1005.9 |